Regional Weather Roundup
Issued by NWS

Home | Current Version | Previous Version | Text Only | Print | Product List | Glossary On
Versions: 1 2 3 4 5 6 7 8 9 10 11 12 13 14 15 16 17 18 19 20 21 22 23 24 25 26 27 28 29 30 31 32 33 34 35 36 37 38 39 40 41 42 43 44 45 46 47 48 49 50
000
ASUS42 KFFC 010603
RWRGA
WEATHER ROUNDUP FOR GEORGIA
NATIONAL WEATHER SERVICE PEACHTREE CITY GA
200 AM EDT FRI AUG 01 2014

NOTE: "FAIR" INDICATES FEW OR NO CLOUDS BELOW 12,000 FEET WITH NO
SIGNIFICANT WEATHER AND/OR OBSTRUCTIONS TO VISIBILITY.

* = USE WITH CAUTION. THE STATIONS MARKED WITH AN ASTERISK MAY NOT
REPORT WEATHER SUCH AS PRECIPITATION, FOG, OR THUNDER AND ARE NOT
QUALITY CONTROLLED BY NWS.

THE REMARK "TC" DENOTES TEMPERATURE READING IN DEGREES CELSIUS.

GAZ001>058-010700-
NORTH GEORGIA

CITY           SKY/WX    TMP DP  RH WIND       PRES   REMARKS
ATLANTA        CLOUDY    67  65  93 NE12      30.07F
6HR MIN TEMP:  67; 6HR MAX TEMP:  72; 6HR PCP:  0.03;

ATHENS         LGT RAIN  67  65  93 NE6       30.08F
6HR MIN TEMP:  67; 6HR MAX TEMP:  69; 6HR PCP:  0.03;

CHAMBLEE       CLOUDY    66  63  90 E5        30.08F
6HR MIN TEMP:  66; 6HR MAX TEMP:  70; 6HR PCP:  0.05;

PEACHTREE CITY CLOUDY    68  66  93 E5        30.07F
6HR MIN TEMP:  68; 6HR MAX TEMP:  73; 6HR PCP:  0.09;

ROME           CLOUDY    69  64  84 CALM      30.06F
6HR MIN TEMP:  69; 6HR MAX TEMP:  77;

WEST ATLANTA   LGT RAIN  67  65  93 NE7       30.07F
6HR MIN TEMP:  67; 6HR MAX TEMP:  71; 6HR PCP:  0.05;

GAINESVILLE    CLOUDY    65  63  93 NE8       30.12F
6HR MIN TEMP:  64; 6HR MAX TEMP:  69; 6HR PCP:  0.04;

CARTERSVILLE   CLOUDY    67  64  90 E5        30.07F
6HR MIN TEMP:  67; 6HR MAX TEMP:  73; 6HR PCP:  0.11;



CITY           SKY/WX    TMP DP  RH WIND       PRES   REMARKS
DALTON*        CLOUDY    68  66  94 CALM      30.07F
MARIETTA       CLOUDY    66  66  99 VRB6      30.07F
$$

GAZ059>098-102>109-010700-
CENTRAL GEORGIA

CITY           SKY/WX    TMP DP  RH WIND       PRES   REMARKS
AUGUSTA-BUSH   CLOUDY    72  68  87 NE6       30.03F
6HR MIN TEMP:  72; 6HR MAX TEMP:  76;

AUGUSTA-DANIEL CLOUDY    72  67  84 NE7       30.05F
6HR MIN TEMP:  72; 6HR MAX TEMP:  74; 6HR PCP: TRACE;

COLUMBUS       CLOUDY    75  68  78 NE6       30.01F
6HR MIN TEMP:  75; 6HR MAX TEMP:  85;

MACON          CLOUDY    71  69  93 N6        30.02S
6HR MIN TEMP:  71; 6HR MAX TEMP:  77;

ROBINS AFB     CLOUDY    73  69  87 N5        30.01F


CITY           SKY/WX    TMP DP  RH WIND       PRES   REMARKS
LAGRANGE*      CLOUDY    74  70  87 NE6       30.04F
SYLVANIA*      CLOUDY    74  74 100 E6        30.02F FOG
MILLEDGEVILLE* LGT RAIN  64  64 100 NE3       30.04S
$$

GAZ099>101-110>166-010700-
SOUTH GEORGIA

CITY           SKY/WX    TMP DP  RH WIND       PRES   REMARKS
SAVANNAH       PTCLDY    76  74  93 N3        30.00F
6HR MIN TEMP:  76; 6HR MAX TEMP:  80;

VALDOSTA       CLEAR     72  65  78 CALM      29.97F
6HR MIN TEMP:  72; 6HR MAX TEMP:  86;

ALMA           PTCLDY    72  69  90 CALM      29.98F
6HR MIN TEMP:  72; 6HR MAX TEMP:  89;

ST SIMONS      PTCLDY    83  72  69 SE12      29.98F
6HR MIN TEMP:  83; 6HR MAX TEMP:  85;

FT STEWART     PTCLDY    73  71  95 CALM      29.98
ALBANY         CLEAR     74  71  91 NE7       29.99F
HUNTER AFB     PTCLDY    76  73  90 VRB1      29.97
MOODY AFB      PTCLDY    76  67  72 S2        29.96
BRUNSWICK      PTCLDY    82  72  69 SE5       29.98F


CITY           SKY/WX    TMP DP  RH WIND       PRES   REMARKS
BAINBRIDGE*    PTCLDY    73  68  83 CALM      29.97F
MOULTRIE*      CLEAR     73  68  83 CALM      29.98F
VIDALIA*         N/A     73  73 100 E3        30.01S
WAYCROSS*      PTCLDY    79  75  87 E3        29.97F
DOUGLAS*       CLEAR     77  68  73 CALM      29.99F
$$


USA.gov is the U.S. government's official web portal to all federal, state and local government web resources and services.